Regional Weather Roundup
Issued by NWS Wakefield, VA

Home | Current Version | Previous Version | Text Only | Print | Product List | Glossary On
Versions: 1 2 3 4 5 6 7 8 9 10 11 12 13 14 15 16 17 18 19 20 21 22 23 24 25 26 27 28 29
000
ASUS41 KAKQ 251110
RWRAKQ

REGIONAL WEATHER ROUNDUP
NATIONAL WEATHER SERVICE WAKEFIELD VA
700 AM EDT SAT OCT 25 2014

Note: "fair" indicates few or no clouds below 12,000 feet with no
significant weather and/or obstructions to visibility. * = Denotes
station may not report precipitation (e.g., rain,snow,etc.),
thunder or fog.

VAZ042-051-052>054-056-251200-
NORTHERN VIRGINIA

CITY           SKY/WX    TMP DP  RH WIND       PRES   REMARKS
WASH NATIONAL  CLEAR     50  42  74 S3        29.97R
DULLES         CLEAR     43  38  82 S3        29.96S
FORT BELVOIR   CLEAR     39  38  96 CALM      29.97R
QUANTICO       CLEAR     42  39  89 NW8       29.98S
FREDERICKSBRG* CLEAR     38  38 100 CALM      29.98R
STAFFORD*      CLEAR    N/A N/A N/A CALM      30.01S
WARRENTON      CLEAR     34  34 100 CALM      29.97S
CULPEPER*      CLEAR     34  34 100 CALM      29.99S
MANASSAS*      NOT AVBL
LEESBURG*      CLEAR     52  43  71 W5        29.96F
WINCHESTER     CLEAR     43  32  65 CALM      29.97F
FRONT ROYAL*   SUNNY     41  36  81 S5        29.97F
LURAY*         SUNNY     37  37 100 S3        30.00F
$$

VAZ048-049-060>072-079>083-251200-
CENTRAL AND SOUTH CENTRAL VIRGINIA...AND NORTH CENTRAL NORTH CAROLINA

CITY           SKY/WX    TMP DP  RH WIND       PRES   REMARKS
RICHMOND       CLEAR     42  39  89 CALM      29.98R
CHESTERFIELD*    N/A    N/A N/A N/A MISG        N/A
PETERSBURG*    CLEAR     35  34  97 CALM      29.99S FOG
HANOVER        CLEAR     37  37 100 CALM      30.00R FOG
TAPPAHANNOCK*  CLEAR     37  34  90 CALM      29.98S
CHARLOTTSVILLE CLEAR     42  35  76 SW3       29.98S
ORANGE*        CLEAR     34  34 100 CALM      30.00S
LOUISA*        CLEAR     34  34 100 CALM      29.97S
FARMVILLE*       N/A     36  34  93 CALM      29.99R FOG
CREWE*         SUNNY     39  38  96 CALM      29.99R
FORT PICKETT*    N/A     42  41  98 CALM      29.99R VSB 1
LUNENBURG*     SUNNY     42  41  97 CALM      29.98S
SOUTH HILL*    CLEAR     41  41 100 CALM      30.03S FOG
LAWRENCEVILLE* SUNNY     40  40  99 CALM      29.98S
ROANOKE RAPIDS SUNNY     37  37 100 CALM      29.99R
RALEIGH        CLEAR     41  39  93 CALM      30.00R
$$

VAZ088>098-251200-
SOUTHEAST VIRGINIA

CITY           SKY/WX    TMP DP  RH WIND       PRES   REMARKS
NORFOLK        CLEAR     58  43  57 N12       29.97R
VIRGINIA BEACH CLEAR     47  43  86 SW3       29.96R
NORFOLK NAVAL  PTCLDY    55  44  66 N8        29.99R
WEST POINT*    CLEAR     40  37  92 CALM      29.99S
NEWPORT NEWS   CLEAR     45  40  82 CALM      29.97S
LANGLEY AFB    CLEAR     46  42  84 NW5       29.98R
FORT EUSTIS    CLEAR     53  38  56 N3        29.96S
WILLIAMSBURG*  CLEAR     46  46 100 N5        29.98S
HR EXEC AP*    SUNNY     34  30  86 CALM      30.00S
FRANKLIN*      CLEAR     37 N/A N/A CALM      29.99R
WAKEFIELD      CLEAR     40  38  93 CALM      29.98S
$$

VAZ020-022-025-037-045-251200-
WEST CENTRAL AND SOUTHWEST VIRGINIA

CITY           SKY/WX    TMP DP  RH WIND       PRES   REMARKS
STAUNTON*      CLEAR     31  29  90 CALM      30.03S
HOT SPRINGS VA CLEAR     44  34  70 W9        30.00F
LYNCHBURG      CLEAR     37  35  92 CALM      30.02R
DANVILLE       CLEAR     42  38  85 CALM      30.02R
SOUTH BOSTON*  NOT AVBL
MARTINSVILLE   CLEAR     32  32 100 CALM      30.05R
ROANOKE        CLEAR     45  37  73 CALM      30.05S
BLACKSBURG     CLEAR     36  36 100 CALM      30.07S FOG
DUBLIN*        CLEAR     43  39  87 CALM      30.07S
MARION*        CLEAR     38  36  93 W9        30.10R
HILLSVILLE*    CLEAR     44  37  77 W6        30.05F
RICHLANDS*     SUNNY     44  39  85 CALM      30.08R
WISE*          CLEAR     43  36  75 S3        30.10R
ABINGDON*      CLEAR     37  36  97 CALM      30.09S
$$

MDZ021>025-VAZ099-100-251200-
SOUTHERN MARYLAND AND THE DELMARVA PENINSULA

CITY           SKY/WX    TMP DP  RH WIND       PRES   REMARKS
PATUXENT RIVER CLEAR     42  37  82 W6        29.96R
BAY BRIDGE APT   N/A     52  39  62 W6        29.94F
LEONARDTOWN    CLEAR     37  36  93 CALM      29.97F
DOVER          CLEAR     45  40  83 S1        29.90S
GEORGETOWN     CLEAR     45  40  82 CALM      29.94R
EASTON         CLEAR     46  46 100 CALM      29.97S
CAMBRIDGE      CLEAR     45  41  87 CALM      29.94S
SALISBURY      CLEAR     43  39  86 CALM      29.94S
OCEAN CITY     CLEAR     47  40  76 NW6       29.93R
WALLOPS ISLAND CLEAR     48  42  80 NW6       29.95R
ACCOMACK*      CLEAR     46  43  87 NW3       29.96R
$$

NCZ012>017-030>032-251200-
EASTERN NORTH CAROLINA

CITY           SKY/WX    TMP DP  RH WIND       PRES   REMARKS
ELIZABETH CITY CLEAR     47  42  83 W3        29.98R
AHOSKIE*       CLEAR     39  38  97 CALM      30.00R
EDENTON*       CLEAR     44  43  97 CALM      29.98R
CURRITUCK*     CLEAR     47  44  87 CALM      29.98R
KILL DEVIL HLS CLEAR     54  52  94 NW5       29.95R
MANTEO         CLEAR     47  46  97 CALM      29.97R
CAPE HATTERAS  CLEAR     54  53  97 NW5       29.96R
TARBORO*       SUNNY     38  37  97 CALM      30.01R
GOLDSBORO      CLEAR     46  46  98 W1        29.98R
WASHINGTON     CLEAR     42  41  96 CALM      29.99R
GREENVILLE     LGT RAIN  41  41 100 CALM      30.01R VSB 1/2
NEW BERN       CLEAR     46  43  89 CALM      30.00R
WILMINGTON     CLEAR     46  44  93 CALM      29.99R
$$

VAZ048-251200-
ELSEWHERE

CITY           SKY/WX    TMP DP  RH WIND       PRES   REMARKS
HARRISBURG PA  PTCLDY    44  40  85 CALM      29.92S
BALTIMORE      CLEAR     43  38  82 CALM      29.94S
ANNAPOLIS      CLEAR     47  39  74 W3        29.94S
ANDREWS AFB    CLEAR     42  39  88 W2        29.95S
WILMINGTON DE  CLEAR     45  39  79 SW3       29.93S
PHILADELPHIA   PTCLDY    49  36  61 W6        29.91F
WILDWOOD NJ*   CLEAR     54  39  58 CALM      29.93S
ATLANTIC CITY  CLEAR     40  37  89 NW3       29.90F
HENDERSON NC   CLEAR     45  38  78 N3        29.99S
GREENSBORO     PTCLDY    39  36  89 CALM      30.01R
ROCKY MOUNT    CLEAR     43  42  97 CALM      30.00R FOG
FAYETTEVILLE   CLEAR     48  43  82 CALM      30.00R
CHARLOTTE      CLEAR     39  37  92 N3        30.03R
$$

VAZ100-251200-
MARINE

STATION/POSITION TIME  TEMP    WIND        PRES    WAVE   SWELL
                       AIR SEA DIR/SP/G            HT/PER HT/PER
                 (UTC) (F)     (DEG/KT/KT) (MB)    (FT/S) (FT/S)
44066 TX TWR #4  1100   59 65  340/ 17/ 21 1010.3R   5/ 5   2/10
CAPE MAY NJ      1100   56 62  330/  5/  9 1012.7R
LEWES DE         1100   52 61  300/  8/  9 1013.2R
15NM E FENWICK I 1100   60 64  320/ 17/ 21 1012.5R   4/ 5   2/10
OCEAN-CITY-INLET 1100   52 59  340/  7/ 10 1013.1R
WACHAPREAGUE VA  1100   51 59  330/  1/  3 1014.3R
THOMAS POINT MD  1100   53 61  300/  8/  9 1015.0F
GOOSES REEF MD   1100   56     330/  8/ 10 1014.7S
COVE POINT MD    1100   53     310/  5/  7 1014.2S
SOLOMONS ISLAND  1100      63                N/A
BISHOPS HEAD MD  1100   51 57  320/  5/  6 1013.6S
PINEY POINT MD   1100          340/  9/ 10   N/A
POTOMAC MD       1100   57     330/ 12/ 12 1014.0R
CAMBRIDGE MD     1100   50 60  220/  4/  4 1013.8F
LEWISETTA VA     1100   51 59  280/  3/  4 1014.2F
RAPPAHANNOCK LGT 1100          340/ 15/ 16 1014.9R
STINGRAY PT      1100   57     340/ 10/ 12 1015.3R
YORK RVR RNG VA  1100   56     350/ 10/ 11 1014.3S
YORKTOWN VA      1100   54 63  330/  8/  9 1014.6S
JAMESTOWN VA     1100   52      20/  2/  4   N/A
DOMINION TERM VA 1100   53     360/  5/  7 1014.9S
KIPTOPEKE VA     1100      65   20/  5/  6   N/A
CHES BAY BRIDGE  1100   60 63  340/ 12/ 16 1014.1S
CHESAPEAKE LGHT  1000   60     350/ 18/ 19 1014.5R
WILLOUBY STN VA  1100   56     360/ 10/ 12 1013.4S
S CRANEY ISL VA  1100          330/  8/ 11 1014.7R
CAPE HENRY BUOY  1100      67                N/A     3/ 4
1ST LANDING BUOY 1100   61     350/ 14/ 17 1014.2S
CAPE CHARLES BUO 1100      66                N/A     2/ 9   2/ 9
64NM E OF VA BCH 1100   63 66  340/ 14/ 16 1013.0R   3/ 5   2/ 9
DUCK PIER NC     1100   56 65  300/  7/  9 1013.8R
44100 DUCK FRF   1100      67                N/A     3/11   2/11
44056 DUCK FRF   1100                        N/A     3/10
OREGON INLET NC  1100   56 64  300/  4/  5 1014.5R
HATTERAS NC      1100   62 65  320/  9/ 11 1014.9R
DIAMOND SHLS NC  1100   64     320/ 12/ 14 1014.3R   3/ 9   2/ 9
CAPE LOOKOUT NC  1000   60     350/  5/  5 1014.4R
$$



USA.gov is the U.S. government's official web portal to all federal, state and local government web resources and services.